Find Starlink 37810

NORAD ID: 100292 Int'l Des: 2026-183 Owner: SPXS Country: US Constellation: starlink operational

Current View

Loading 3D Globe...

About Starlink 37810

Starlink 37810 (NORAD 100292) is a starlink constellation satellite launched Aug 11, 2026 by SPXS of US. with a mass of 575.00 kg.

Upcoming Passes

Passes for default location (London). Set your location on the main map for personalized predictions.

Altitude History

Loading altitude history...

Two-Line Element Set

1 A0292U 26183W 26254.51036600 -.00206136 00000-0 -14125-2 0 9998
2 A0292 53.1567 301.5538 0002044 62.3920 297.7307 15.74594583 4896
Epoch: Sep 11, 2026 • Age: 29 hours

Current Status

Altitude 347.9 km
Apogee / Perigee N/A
Velocity 7.70 km/s
Sub-Earth Point -1.72°S, 44.75°E
Launch Date Aug 11, 2026
Age 32 days
Type internet

Technical Details

Classification Payload
Mass 575.00 kg
Dry Mass 530.00 kg
Total Mass 575.00 kg
Length 0.30 m
Diameter 4.10 m
Span 29.00 m
Shape Box + pan
Manufacturer SPXS
Bus Type Starlink V2MO
Phase Status In Orbit
Owner/State SPXS/US

Most Searched